sat.trackr.live / text

‹ back to catalog

STARLINK-34733

NORAD 66487 · 2025-263C

PAYLOAD ACTIVE UNKNOWN

§ Identity

Operator
Country
US
Launch date
2025-11-15
Launch site
AFETR
Launch vehicle
Mass (kg)
RCS (m²)

Purposes: comms

External: N2YO · Heavens-Above · Gunter

§ Orbital elements

Epoch: 2026-05-25T01:36:00.402912Z

Period
94.27 min
Inclination
43.0013°
Eccentricity
0.0000615
Mean motion
15.27580143 rev/d
Perigee alt
482.6 km
Apogee alt
483.5 km
Semi-major
6,861.2 km
B*
6.1100e-4
RAAN
279.0292°
Arg perigee
314.9426°
Mean anomaly
45.1376°
Rev number
3,058

§ Raw data

STARLINK-347331 66487U 25263C   26145.06667133  .00016589  00000+0  61100-3 0  99982 66487  43.0013 279.0292 0000615 314.9426  45.1376 15.27580143 30584

JSON: /api/v1/satellites/66487 · /tle

For live sub-satellite position, see the globe view (requires WebGL).

§ Visibility from observer

Set your observer location to see the next 7 days of passes ≥ 10°. The values pass through the URL so the page stays shareable.

No JS? Fill the form by hand. The geolocation button needs JavaScript.